Weather History for KMYR - December, 2012

Change the Weather History Date:

Friday, December 21, 2012

  Actual Average Record
Temperature  
Mean Temperature 52 °F -  
Max Temperature 62 °F 53 °F 73 °F (2013)
Min Temperature 41 °F 34 °F 17 °F (1954)
Degree Days  
Heating Degree Days 14    
Growing Degree Days 2 (Base 50)    
Moisture  
Dew Point 32 °F    
Average Humidity 55    
Maximum Humidity 94    
Minimum Humidity 32    
Precipitation  
Precipitation 0.32 in - - ()
Sea Level Pressure  
Sea Level Pressure 29.76 in    
Wind  
Wind Speed 19 mph (West)    
Max Wind Speed 26 mph    
Max Gust Speed 41 mph    
Visibility 10 miles    
Events      
Averages and records for this station are not official NWS values.
T = Trace of Precipitation, MM = Missing Value Source: NWS Daily Summary

Daily Weather History Graph

Daily Weather History Graph

Search for Another Location

Airport or City:

Trip Planner

Search our weather history database for the weather conditions in past years. The results will help you decide how hot, cold, wet, or windy it might be!

Date:

Astronomy

Dec. 21, 2012 Rise Set
Actual Time 7:16 AM EST 5:11 PM EST
Civil Twilight 6:48 AM EST 5:39 PM EST
Nautical Twilight 6:17 AM EST 6:10 PM EST
Astronomical Twilight 5:47 AM EST 6:40 PM EST
Moon 12:47 PM EST (12/21) 1:13 AM EST (12/21)
Length of Visible Light 10h 50m
Length of Day
9h 54m
Waxing Gibbous, 64% of the Moon is Illuminated
Dec 21
Waxing Gibbous
Dec 28
Full
Jan 4
Last Quarter
Jan 11
New
Jan 18
First Quarter

Hourly Weather History & Observations

Time (EST) Temp. Windchill Dew Point Humidity Pressure Visibility Wind Dir Wind Speed Gust Speed Precip Events Conditions
12:15 AM 62.6 °F - 60.8 °F 94% 29.61 in 10.0 mi WSW 18.4 mph 26.5 mph N/A   Overcast
12:35 AM 62.6 °F - 59.0 °F 88% 29.61 in 10.0 mi WSW 20.7 mph 31.1 mph N/A   Overcast
12:55 AM 60.8 °F - 55.4 °F 82% 29.62 in 10.0 mi West 25.3 mph 39.1 mph N/A   Mostly Cloudy
1:15 AM 59.0 °F - 51.8 °F 77% 29.63 in 10.0 mi West 21.9 mph 31.1 mph N/A   Overcast
1:35 AM 57.2 °F - 48.2 °F 72% 29.64 in 10.0 mi West 18.4 mph 33.4 mph N/A   Overcast
1:55 AM 55.4 °F - 42.8 °F 63% 29.65 in 10.0 mi West 24.2 mph 38.0 mph N/A   Overcast
2:15 AM 51.8 °F - 35.6 °F 54% 29.68 in 10.0 mi West 21.9 mph 41.4 mph N/A   Mostly Cloudy
2:35 AM 48.2 °F - 32.0 °F 54% 29.70 in 10.0 mi West 25.3 mph 40.3 mph N/A   Partly Cloudy
2:55 AM 46.4 °F 37.7 °F 30.2 °F 53% 29.70 in 10.0 mi West 26.5 mph 39.1 mph N/A   Clear
3:15 AM 44.6 °F 35.9 °F 30.2 °F 57% 29.71 in 10.0 mi West 23.0 mph 29.9 mph N/A   Clear
3:35 AM 44.6 °F 36.6 °F 30.2 °F 57% 29.71 in 10.0 mi West 19.6 mph 29.9 mph N/A   Clear
3:55 AM 44.6 °F 36.1 °F 30.2 °F 57% 29.72 in 10.0 mi West 21.9 mph 31.1 mph N/A   Clear
4:15 AM 44.6 °F 36.1 °F 30.2 °F 57% 29.72 in 10.0 mi West 21.9 mph 29.9 mph N/A   Clear
4:35 AM 44.6 °F 37.8 °F 30.2 °F 57% 29.71 in 10.0 mi West 15.0 mph 25.3 mph N/A   Clear
4:55 AM 44.6 °F 36.4 °F 30.2 °F 57% 29.72 in 10.0 mi West 20.7 mph 28.8 mph N/A   Clear
5:15 AM 44.6 °F 36.4 °F 30.2 °F 57% 29.72 in 10.0 mi West 20.7 mph 32.2 mph N/A   Clear
5:35 AM 44.6 °F 36.4 °F 30.2 °F 57% 29.73 in 10.0 mi West 20.7 mph 32.2 mph N/A   Clear
6:45 AM 44.6 °F 37.2 °F 30.2 °F 57% 29.76 in 10.0 mi West 17.3 mph 27.6 mph N/A   Clear
7:45 AM 42.8 °F 36.6 °F 30.2 °F 61% 29.77 in 10.0 mi West 11.5 mph 23.0 mph N/A   Clear
8:45 AM 44.6 °F 38.1 °F 28.4 °F 53% 29.78 in 10.0 mi West 13.8 mph 23.0 mph N/A   Clear
9:45 AM 46.4 °F 39.5 °F 28.4 °F 50% 29.78 in 10.0 mi West 17.3 mph 35.7 mph N/A   Partly Cloudy
10:47 AM 46.4 °F 39.5 °F 26.6 °F 46% 29.79 in 10.0 mi West 17.3 mph 34.5 mph N/A   Partly Cloudy
11:48 AM 48.2 °F - 26.6 °F 43% 29.77 in 10.0 mi West 19.6 mph 31.1 mph N/A   Partly Cloudy
12:50 PM 48.2 °F - 24.8 °F 40% 29.74 in 10.0 mi WNW 17.3 mph 28.8 mph N/A   Partly Cloudy
1:45 PM 50.0 °F - 21.2 °F 32% 29.74 in 10.0 mi WNW 13.8 mph 23.0 mph N/A   Scattered Clouds
2:47 PM 50.0 °F - 24.8 °F 37% 29.75 in 10.0 mi WNW 17.3 mph 28.8 mph N/A   Scattered Clouds
3:45 PM 48.2 °F - 24.8 °F 40% 29.76 in 10.0 mi West 19.6 mph 32.2 mph N/A   Scattered Clouds
4:45 PM 48.2 °F - 23.0 °F 37% 29.80 in 10.0 mi West 11.5 mph 23.0 mph N/A   Scattered Clouds
5:45 PM 46.4 °F 39.8 °F 24.8 °F 43% 29.83 in 10.0 mi West 16.1 mph 21.9 mph N/A   Partly Cloudy
6:45 PM 44.6 °F 38.1 °F 24.8 °F 46% 29.87 in 10.0 mi West 13.8 mph - N/A   Clear
7:45 PM 44.6 °F 37.2 °F 24.8 °F 46% 29.87 in 10.0 mi West 17.3 mph - N/A   Clear
8:45 PM 42.8 °F 36.6 °F 24.8 °F 49% 29.89 in 10.0 mi West 11.5 mph - N/A   Clear
9:45 PM 42.8 °F 36.6 °F 24.8 °F 49% 29.90 in 10.0 mi West 11.5 mph - N/A   Clear
10:55 PM 42.8 °F 36.2 °F 24.8 °F 49% 29.90 in 10.0 mi West 12.7 mph 19.6 mph N/A   Clear
11:15 PM 41.0 °F 34.3 °F 24.8 °F 53% 29.90 in 10.0 mi West 11.5 mph 17.3 mph N/A   Clear
11:35 PM 41.0 °F 34.3 °F 24.8 °F 53% 29.90 in 10.0 mi West 11.5 mph - N/A   Clear
11:55 PM 41.0 °F 34.3 °F 24.8 °F 53% 29.91 in 10.0 mi West 11.5 mph - N/A   Clear